KM5R Weather Reports


time (UTC)temp
C
wind
direction
speed
KPH
gust
KPH
rain 1hr
cm
rain 24hr
cm
rain mn
cm
humidity
%
barometer
mb
20260906225728 33 230 3.2 3.2 0.00 0.00 0.00 51 1013.6
20260906225224 33 202 4.8 4.8 0.00 0.00 0.00 49 1013.9
20260906224719 33 99 1.6 1.6 0.00 0.00 0.00 51 1013.6
20260906224215 33 126 1.6 3.2 0.00 0.00 0.00 49 1013.8
20260906223712 33 251 8.0 9.7 0.00 0.00 0.00 50 1013.5
20260906223207 32 188 4.8 4.8 0.00 0.00 0.00 51 1013.5
20260906222705 33 222 4.8 8.0 0.00 0.00 0.00 50 1013.7
20260906222204 33 225 9.7 11.3 0.00 0.00 0.00 47 1013.7
20260906221703 33 124 1.6 1.6 0.00 0.00 0.00 45 1013.6
20260906221202 33 73 8.0 9.7 0.00 0.00 0.00 45 1013.7
20260906220657 33 88 4.8 8.0 0.00 0.00 0.00 45 1013.9
20260906220153 33 93 9.7 12.9 0.00 0.00 0.00 45 1013.9
20260906215651 33 100 11.3 12.9 0.00 0.00 0.00 44 1013.9
20260906215151 33 86 11.3 16.1 0.00 0.00 0.00 44 1013.9
20260906214649 34 56 1.6 3.2 0.00 0.00 0.00 45 1013.8
20260906214144 34 89 1.6 1.6 0.00 0.00 0.00 44 1013.7
20260906213643 34 75 3.2 3.2 0.00 0.00 0.00 43 1013.9
20260906213138 35 99 6.4 9.7 0.00 0.00 0.00 44 1014.1
20260906212635 35 66 4.8 8.0 0.00 0.00 0.00 43 1014.2
20260906212131 35 187 6.4 8.0 0.00 0.00 0.00 42 1014.1
20260906211631 34 279 3.2 3.2 0.00 0.00 0.00 44 1014.1
20260906211126 34 57 0.0 0.0 0.00 0.00 0.00 44 1014.2
20260906210622 33 82 6.4 8.0 0.00 0.00 0.00 45 1014.2
20260906210116 33 72 11.3 14.5 0.00 0.00 0.00 45 1014.3
20260906205612 35 129 9.7 14.5 0.00 0.00 0.00 44 1014.3
20260906205108 34 232 3.2 3.2 0.00 0.00 0.00 44 1014.3
20260906204607 33 50 0.0 1.6 0.00 0.00 0.00 47 1014.4
20260906204102 33 101 1.6 3.2 0.00 0.00 0.00 46 1014.7
20260906203601 33 103 1.6 1.6 0.00 0.00 0.00 47 1014.7
20260906203057 33 95 9.7 11.3 0.00 0.00 0.00 47 1014.7
20260906202553 33 156 6.4 8.0 0.00 0.00 0.00 47 1014.8
20260906202054 33 117 4.8 8.0 0.00 0.00 0.00 47 1014.8
20260906201554 33 101 6.4 8.0 0.00 0.00 0.00 46 1014.8
20260906201053 33 163 8.0 9.7 0.00 0.00 0.00 46 1014.8
20260906200549 33 212 4.8 4.8 0.00 0.00 0.00 46 1014.8
20260906200045 33 195 6.4 8.0 0.00 0.00 0.00 46 1015.0
20260906195540 33 102 6.4 9.7 0.00 0.00 0.00 46 1014.8
20260906195037 33 197 6.4 8.0 0.00 0.00 0.00 46 1015.1
20260906194532 33 58 1.6 1.6 0.00 0.00 0.00 47 1014.8
20260906194028 33 110 3.2 3.2 0.00 0.00 0.00 45 1015.1
20260906193527 33 87 3.2 3.2 0.00 0.00 0.00 45 1015.0
20260906193023 33 107 1.6 1.6 0.00 0.00 0.00 45 1015.1
20260906192518 33 175 6.4 8.0 0.00 0.00 0.00 45 1015.0
20260906192017 33 161 6.4 8.0 0.00 0.00 0.00 44 1014.9
20260906191512 33 142 12.9 14.5 0.00 0.00 0.00 44 1015.1
20260906191011 33 105 3.2 4.8 0.00 0.00 0.00 45 1015.1
20260906190511 35 88 8.0 9.7 0.00 0.00 0.00 42 1015.3
20260906190006 34 135 8.0 11.3 0.00 0.00 0.00 45 1015.3
20260906185504 34 143 9.7 12.9 0.00 0.00 0.00 44 1015.4
20260906185004 33 65 6.4 12.9 0.00 0.00 0.00 45 1015.5
20260906184459 33 199 4.8 4.8 0.00 0.00 0.00 46 1015.4
20260906183954 33 174 9.7 14.5 0.00 0.00 0.00 46 1015.7
20260906183450 33 152 11.3 14.5 0.00 0.00 0.00 47 1015.8
20260906182946 33 181 8.0 11.3 0.00 0.00 0.00 46 1015.8
20260906182435 34 157 11.3 12.9 0.00 0.00 0.00 45 1016.1
20260906181931 33 125 4.8 4.8 0.00 0.00 0.00 46 1016.0
20260906181427 32 208 3.2 3.2 0.00 0.00 0.00 48 1016.2
20260906180923 33 172 16.1 17.7 0.00 0.00 0.00 49 1016.1
20260906180423 32 105 1.6 1.6 0.00 0.00 0.00 52 1016.3
20260906175921 31 184 6.4 8.0 0.00 0.00 0.00 53 1016.5
20260906175416 31 149 9.7 12.9 0.00 0.00 0.00 54 1016.4
20260906174914 31 136 8.0 11.3 0.00 0.00 0.00 55 1016.4
20260906174409 31 227 3.2 3.2 0.00 0.00 0.00 57 1016.6
20260906173903 31 127 6.4 9.7 0.00 0.00 0.00 56 1016.7
20260906173359 31 133 4.8 8.0 0.00 0.00 0.00 54 1016.8
20260906172858 31 119 4.8 4.8 0.00 0.00 0.00 55 1016.6
20260906172354 31 132 4.8 8.0 0.00 0.00 0.00 54 1016.8
20260906171849 32 47 3.2 3.2 0.00 0.00 0.00 52 1016.7
20260906171344 33 85 12.9 14.5 0.00 0.00 0.00 50 1016.9
20260906170839 33 65 4.8 8.0 0.00 0.00 0.00 49 1016.9
20260906170336 32 103 8.0 14.5 0.00 0.00 0.00 50 1016.9
20260906165832 31 48 6.4 9.7 0.00 0.00 0.00 52 1017.1
20260906165331 32 50 3.2 8.0 0.00 0.00 0.00 53 1017.0
20260906164826 32 44 0.0 0.0 0.00 0.00 0.00 54 1017.0
20260906164325 32 21 4.8 4.8 0.00 0.00 0.00 54 1017.2
20260906163822 32 188 3.2 3.2 0.00 0.00 0.00 55 1017.1
20260906163318 31 176 1.6 1.6 0.00 0.00 0.00 56 1017.2
20260906162814 31 319 4.8 4.8 0.00 0.00 0.00 57 1017.3
20260906162308 30 97 3.2 4.8 0.00 0.00 0.00 58 1017.4
20260906161803 31 53 1.6 1.6 0.00 0.00 0.00 59 1017.4
20260906161303 31 36 4.8 4.8 0.00 0.00 0.00 58 1017.2
20260906160801 30 87 0.0 0.0 0.00 0.00 0.00 59 1017.1
20260906160256 30 44 4.8 4.8 0.00 0.00 0.00 62 1017.4
20260906155753 30 34 4.8 8.0 0.00 0.00 0.00 62 1017.3
20260906155248 29 80 3.2 3.2 0.00 0.00 0.00 62 1017.2
20260906154744 29 36 4.8 4.8 0.00 0.00 0.00 64 1017.3
20260906154239 29 31 4.8 4.8 0.00 0.00 0.00 63 1017.3
20260906153737 29 41 3.2 3.2 0.00 0.00 0.00 64 1017.2
20260906153231 28 145 6.4 8.0 0.00 0.00 0.00 66 1017.1
20260906152726 28 54 3.2 3.2 0.00 0.00 0.00 68 1017.3
20260906152220 28 60 0.0 0.0 0.00 0.00 0.00 70 1017.1
20260906151715 27 42 3.2 4.8 0.00 0.00 0.00 72 1017.1
20260906151211 27 87 1.6 3.2 0.00 0.00 0.00 73 1017.2
20260906150707 26 80 4.8 4.8 0.00 0.00 0.00 74 1017.1
20260906150201 26 58 3.2 3.2 0.00 0.00 0.00 74 1017.2
20260906145700 26 38 4.8 4.8 0.00 0.00 0.00 74 1017.1
20260906145200 26 79 6.4 8.0 0.00 0.00 0.00 75 1017.2
20260906144700 26 58 3.2 3.2 0.00 0.00 0.00 74 1017.2
20260906144155 26 94 0.0 1.6 0.00 0.00 0.00 75 1017.2
20260906143649 26 61 8.0 9.7 0.00 0.00 0.00 75 1017.2
20260906143147 26 68 8.0 8.0 0.00 0.00 0.00 74 1017.1
20260906142646 26 53 1.6 1.6 0.00 0.00 0.00 75 1016.9
20260906142141 26 74 1.6 4.8 0.00 0.00 0.00 75 1017.1
20260906141640 26 75 3.2 3.2 0.00 0.00 0.00 75 1017.2
20260906141135 26 73 1.6 1.6 0.00 0.00 0.00 75 1017.1
20260906140634 26 54 0.0 1.6 0.00 0.00 0.00 75 1016.9
20260906140130 26 82 1.6 3.2 0.00 0.00 0.00 75 1016.9
20260906135626 26 38 1.6 3.2 0.00 0.00 0.00 75 1017.0
20260906135122 26 74 4.8 8.0 0.00 0.00 0.00 74 1016.8
20260906134618 26 66 4.8 4.8 0.00 0.00 0.00 73 1016.7
20260906134113 27 57 3.2 3.2 0.00 0.00 0.00 73 1016.8
20260906133609 27 68 3.2 4.8 0.00 0.00 0.00 71 1016.9
20260906133103 28 51 0.0 1.6 0.00 0.00 0.00 69 1016.7
20260906132558 28 42 0.0 1.6 0.00 0.00 0.00 70 1016.4
20260906132054 27 44 0.0 0.0 0.00 0.00 0.00 73 1016.5
20260906131549 26 44 0.0 1.6 0.00 0.00 0.00 76 1016.5
20260906131044 25 44 0.0 0.0 0.00 0.00 0.00 78 1016.5
20260906130544 25 44 0.0 1.6 0.00 0.00 0.00 80 1016.6
20260906130039 23 42 0.0 0.0 0.00 0.00 0.00 80 1016.5
20260906125536 23 42 0.0 0.0 0.00 0.00 0.00 80 1016.3
20260906125037 23 42 0.0 0.0 0.00 0.00 0.00 80 1016.2
20260906124532 23 36 0.0 1.6 0.00 0.00 0.00 80 1016.3
20260906124027 23 18 0.0 0.0 0.00 0.00 0.00 80 1016.4
20260906123526 23 16 1.6 1.6 0.00 0.00 0.00 80 1016.2
20260906123021 23 17 0.0 0.0 0.00 0.00 0.00 80 1016.0
20260906122515 23 17 0.0 0.0 0.00 0.00 0.00 81 1015.8
20260906122012 23 17 0.0 0.0 0.00 0.00 0.00 81 1016.0
20260906121507 23 17 0.0 0.0 0.00 0.00 0.00 81 1016.2
20260906121004 23 17 0.0 0.0 0.00 0.00 0.00 80 1016.1
20260906120504 23 14 0.0 0.0 0.00 0.00 0.00 80 1015.9
20260906120000 23 12 1.6 1.6 0.00 0.00 0.00 80 1016.0
20260906115455 23 12 0.0 1.6 0.00 0.00 0.00 81 1015.8
20260906114950 23 17 0.0 1.6 0.00 0.00 0.00 81 1015.6
20260906114445 23 16 1.6 1.6 0.00 0.00 0.00 80 1015.5
20260906113941 23 14 0.0 0.0 0.00 0.00 0.00 80 1015.8
20260906113440 23 10 0.0 0.0 0.00 0.00 0.00 80 1015.6
20260906112935 23 7 1.6 1.6 0.00 0.00 0.00 80 1015.6
20260906112430 23 7 1.6 1.6 0.00 0.00 0.00 80 1015.4
20260906111926 23 5 0.0 0.0 0.00 0.00 0.00 80 1015.4
20260906111426 23 5 1.6 1.6 0.00 0.00 0.00 80 1015.5
20260906110920 23 7 1.6 1.6 0.00 0.00 0.00 79 1015.3
20260906110416 23 14 1.6 1.6 0.00 0.00 0.00 79 1015.0
20260906105915 23 27 0.0 1.6 0.00 0.00 0.00 79 1015.0
20260906105411 24 29 1.6 1.6 0.00 0.00 0.00 79 1015.0
20260906104907 23 36 1.6 1.6 0.00 0.00 0.00 79 1014.8
20260906104405 23 36 0.0 0.0 0.00 0.00 0.00 79 1015.0
20260906103904 23 36 0.0 0.0 0.00 0.00 0.00 79 1015.0
20260906103402 23 35 0.0 0.0 0.00 0.00 0.00 79 1014.7
20260906102858 23 35 1.6 1.6 0.00 0.00 0.00 78 1014.8
20260906102357 24 48 0.0 1.6 0.00 0.00 0.00 78 1014.8
20260906101852 24 94 0.0 0.0 0.00 0.00 0.00 78 1014.7
20260906101347 24 94 0.0 0.0 0.00 0.00 0.00 78 1014.8
20260906100843 24 94 0.0 1.6 0.00 0.00 0.00 78 1014.9
20260906100341 24 102 1.6 1.6 0.00 0.00 0.00 78 1014.7
20260906095832 24 98 0.0 1.6 0.00 0.00 0.00 78 1014.8
20260906095327 24 80 0.0 0.0 0.00 0.00 0.00 78 1014.9
20260906094826 24 80 0.0 0.0 0.00 0.00 0.00 78 1014.9
20260906094321 24 80 0.0 0.0 0.00 0.00 0.00 78 1014.8
20260906093817 24 80 0.0 1.6 0.00 0.00 0.00 78 1014.8
20260906093313 24 80 0.0 0.0 0.00 0.00 0.00 78 1014.6
20260906092808 24 80 0.0 0.0 0.00 0.00 0.00 78 1014.9
20260906092301 24 80 0.0 0.0 0.00 0.00 0.00 78 1014.9
20260906091758 24 80 0.0 0.0 0.00 0.00 0.00 77 1014.8
20260906091254 24 80 0.0 0.0 0.00 0.00 0.00 77 1014.9
20260906090750 25 80 0.0 0.0 0.00 0.00 0.00 77 1014.8
20260906090249 25 80 0.0 1.6 0.00 0.00 0.00 77 1015.0
20260906085748 25 80 1.6 1.6 0.00 0.00 0.00 77 1014.5
20260906085247 24 80 0.0 0.0 0.00 0.00 0.00 77 1014.4
20260906084742 24 80 0.0 0.0 0.00 0.00 0.00 77 1014.6
20260906084242 24 80 0.0 0.0 0.00 0.00 0.00 77 1014.5
20260906083737 25 80 0.0 0.0 0.00 0.00 0.00 77 1014.6
20260906083232 25 80 0.0 0.0 0.00 0.00 0.00 76 1014.7
20260906082727 25 80 0.0 0.0 0.00 0.00 0.00 76 1014.7
20260906082222 25 80 0.0 1.6 0.00 0.00 0.00 76 1014.8
20260906081719 25 80 0.0 0.0 0.00 0.00 0.00 75 1014.6
20260906081213 25 80 0.0 0.0 0.00 0.00 0.00 75 1015.0
20260906080710 25 80 0.0 0.0 0.00 0.00 0.00 75 1015.1
20260906080206 25 80 0.0 1.6 0.00 0.00 0.00 76 1015.1
20260906075706 25 80 0.0 0.0 0.00 0.00 0.00 75 1014.9
20260906075201 25 80 0.0 0.0 0.00 0.00 0.00 75 1015.0
20260906074656 25 80 0.0 0.0 0.00 0.00 0.00 75 1015.3
20260906074155 25 80 0.0 0.0 0.00 0.00 0.00 74 1015.3
20260906073650 25 80 0.0 0.0 0.00 0.00 0.00 74 1015.1
20260906073145 25 80 0.0 0.0 0.00 0.00 0.00 74 1015.3
20260906072640 25 80 0.0 0.0 0.00 0.00 0.00 74 1015.3
20260906072136 26 80 0.0 0.0 0.00 0.00 0.00 73 1015.5
20260906071632 26 82 1.6 1.6 0.00 0.00 0.00 72 1015.5
20260906071132 26 83 1.6 3.2 0.00 0.00 0.00 72 1015.6
20260906070629 26 80 1.6 1.6 0.00 0.00 0.00 72 1015.5
20260906070124 26 78 0.0 1.6 0.00 0.00 0.00 71 1015.4
20260906065624 26 88 1.6 1.6 0.00 0.00 0.00 71 1015.5
20260906065119 26 91 1.6 1.6 0.00 0.00 0.00 70 1015.6
20260906064614 26 90 1.6 1.6 0.00 0.00 0.00 70 1015.6
20260906064109 26 90 1.6 1.6 0.00 0.00 0.00 71 1015.7
20260906063605 26 67 0.0 1.6 0.00 0.00 0.00 71 1015.7
20260906063101 26 64 1.6 1.6 0.00 0.00 0.00 71 1015.8
20260906062556 26 78 1.6 1.6 0.00 0.00 0.00 70 1015.6
20260906062055 26 106 1.6 3.2 0.00 0.00 0.00 70 1015.6
20260906061552 26 141 3.2 3.2 0.00 0.00 0.00 69 1015.7
20260906061050 27 120 1.6 1.6 0.00 0.00 0.00 69 1015.8
20260906060547 27 83 1.6 1.6 0.00 0.00 0.00 69 1015.7
20260906060044 27 97 3.2 3.2 0.00 0.00 0.00 69 1015.8
20260906055540 27 97 1.6 3.2 0.00 0.00 0.00 69 1016.0
20260906055035 27 69 1.6 3.2 0.00 0.00 0.00 68 1015.9
20260906054535 27 89 1.6 1.6 0.00 0.00 0.00 68 1016.0
20260906054030 27 99 1.6 3.2 0.00 0.00 0.00 68 1015.7
20260906053527 27 125 3.2 3.2 0.00 0.00 0.00 67 1015.6
20260906053022 27 154 8.0 11.3 0.00 0.00 0.00 67 1015.8
20260906052518 27 74 4.8 4.8 0.00 0.00 0.00 67 1015.9
20260906052015 27 133 6.4 8.0 0.00 0.00 0.00 67 1015.7
20260906051510 27 85 6.4 8.0 0.00 0.00 0.00 66 1015.9
20260906051005 27 85 1.6 3.2 0.00 0.00 0.00 66 1015.6
20260906050500 27 94 6.4 8.0 0.00 0.00 0.00 66 1015.9
20260906045959 27 89 3.2 4.8 0.00 0.00 0.00 66 1016.1
20260906045458 27 100 8.0 9.7 0.00 0.00 0.00 65 1015.7
20260906044954 28 102 8.0 9.7 0.00 0.00 0.00 64 1015.8
20260906044449 28 109 6.4 9.7 0.00 0.00 0.00 64 1015.8
20260906043945 28 66 3.2 4.8 0.00 0.00 0.00 63 1016.1
20260906043441 28 40 4.8 4.8 0.00 0.00 0.00 63 1016.1
20260906042936 28 75 3.2 3.2 0.00 0.00 0.00 62 1015.8
20260906042435 28 75 4.8 8.0 0.00 0.00 0.00 62 1015.9
20260906041930 28 115 4.8 4.8 0.00 0.00 0.00 62 1015.8
20260906041426 28 98 8.0 11.3 0.00 0.00 0.00 62 1015.8
20260906040926 28 91 4.8 4.8 0.00 0.00 0.00 62 1015.8
20260906040421 28 91 4.8 4.8 0.00 0.00 0.00 62 1016.0
20260906035916 28 78 3.2 4.8 0.00 0.00 0.00 62 1015.7
20260906035413 28 86 4.8 4.8 0.00 0.00 0.00 62 1015.9
20260906034908 28 81 4.8 4.8 0.00 0.00 0.00 61 1015.7
20260906034408 28 81 3.2 9.7 0.00 0.00 0.00 61 1015.5
20260906033903 28 66 6.4 9.7 0.00 0.00 0.00 61 1015.6
20260906033403 28 90 6.4 8.0 0.00 0.00 0.00 61 1015.5
20260906032859 29 75 6.4 9.7 0.00 0.00 0.00 61 1015.4
20260906032355 29 51 4.8 4.8 0.00 0.00 0.00 61 1015.5
20260906031850 29 61 6.4 11.3 0.00 0.00 0.00 61 1015.5
20260906031345 29 67 6.4 8.0 0.00 0.00 0.00 60 1015.3
20260906030845 29 71 6.4 8.0 0.00 0.00 0.00 60 1015.3
20260906030340 30 86 8.0 11.3 0.00 0.00 0.00 60 1015.1
20260906025835 30 67 1.6 4.8 0.00 0.00 0.00 59 1015.1
20260906025328 30 58 8.0 9.7 0.00 0.00 0.00 59 1015.1
20260906024827 30 58 8.0 11.3 0.00 0.00 0.00 59 1014.9
20260906024321 30 57 8.0 11.3 0.00 0.00 0.00 58 1015.1
20260906023817 30 79 8.0 9.7 0.00 0.00 0.00 58 1014.9
20260906023313 30 57 4.8 8.0 0.00 0.00 0.00 58 1014.9
20260906022808 30 93 9.7 12.9 0.00 0.00 0.00 57 1014.7
20260906022306 30 37 8.0 9.7 0.00 0.00 0.00 57 1014.5
20260906021759 30 67 8.0 12.9 0.00 0.00 0.00 56 1014.5
20260906021258 31 89 8.0 12.9 0.00 0.00 0.00 56 1014.4
20260906020752 31 71 17.7 22.5 0.00 0.00 0.00 55 1014.3
20260906020246 31 80 17.7 17.7 0.00 0.00 0.00 55 1014.3
20260906015741 31 70 9.7 12.9 0.00 0.00 0.00 54 1014.2
20260906015239 31 56 8.0 11.3 0.00 0.00 0.00 53 1013.8
20260906014734 31 73 9.7 12.9 0.00 0.00 0.00 52 1014.3
20260906014225 31 98 6.4 9.7 0.00 0.00 0.00 50 1013.9
20260906013720 31 74 4.8 8.0 0.00 0.00 0.00 48 1013.8
20260906013220 31 61 9.7 12.9 0.00 0.00 0.00 47 1013.9
20260906012716 31 71 1.6 3.2 0.00 0.00 0.00 47 1013.8
20260906012215 32 70 0.0 1.6 0.00 0.00 0.00 45 1013.6
20260906011711 32 81 1.6 3.2 0.00 0.00 0.00 44 1013.6
20260906011206 32 80 1.6 3.2 0.00 0.00 0.00 44 1013.5
20260906010701 32 77 3.2 3.2 0.00 0.00 0.00 43 1013.3
20260906010158 33 72 3.2 4.8 0.00 0.00 0.00 42 1013.3
20260906005657 33 82 8.0 9.7 0.00 0.00 0.00 42 1013.4
20260906005156 33 72 4.8 4.8 0.00 0.00 0.00 42 1013.4
20260906004655 33 85 4.8 9.7 0.00 0.00 0.00 41 1013.5
20260906004151 33 85 8.0 11.3 0.00 0.00 0.00 41 1013.5
20260906003646 33 66 6.4 8.0 0.00 0.00 0.00 40 1013.5
20260906003142 33 71 12.9 16.1 0.00 0.00 0.00 40 1013.4
20260906002642 34 65 11.3 16.1 0.00 0.00 0.00 40 1013.4
20260906002136 34 71 14.5 20.9 0.00 0.00 0.00 40 1013.3
20260906001632 34 51 8.0 11.3 0.00 0.00 0.00 40 1013.5
20260906001131 34 58 6.4 11.3 0.00 0.00 0.00 40 1013.3
20260906000627 34 61 6.4 9.7 0.00 0.00 0.00 40 1013.4
20260906000123 34 73 9.7 11.3 0.00 0.00 0.00 40 1013.2
20260905235621 34 65 11.3 12.9 0.00 0.00 0.00 40 1013.2
20260905235117 35 73 16.1 17.7 0.00 0.00 0.00 40 1013.3
20260905234613 35 67 6.4 9.7 0.00 0.00 0.00 41 1013.2
20260905234108 34 72 12.9 16.1 0.00 0.00 0.00 41 1013.2
20260905233608 35 54 11.3 12.9 0.00 0.00 0.00 40 1013.2
20260905233102 35 67 11.3 17.7 0.00 0.00 0.00 40 1013.0
20260905232557 35 20 3.2 4.8 0.00 0.00 0.00 40 1013.2
20260905232053 35 80 17.7 22.5 0.00 0.00 0.00 39 1013.3
20260905231548 35 54 4.8 9.7 0.00 0.00 0.00 39 1013.1
20260905231044 35 58 9.7 14.5 0.00 0.00 0.00 39 1013.1
20260905230544 35 71 9.7 12.9 0.00 0.00 0.00 38 1013.1
20260905230042 35 74 11.3 14.5 0.00 0.00 0.00 39 1013.1